Tracking 25656 objects as of 21-May-2022
HD Live streaming from Space Station
objects crossing your sky now

COSMOS 2251 DEB

Track COSMOS 2251 DEB now!
10-day predictions


NORAD ID: 34331
Int'l Code: 1993-036PD
Perigee: 687.3 km
Apogee: 748.5 km
Inclination: 74.0 °
Period: 99.0 minutes
Semi major axis: 7088 km
RCS: 0.0304 m2 (small)
Launch date: June 16, 1993
Source: Commonwealth of Independent States (former USSR) (CIS)
Launch site: PLESETSK MISSILE AND SPACE COMPLEX (PKMTR)

Note: This is SATELLITE DEBRIS
aabbcc
Your satellite tracking list
Your tracking list is empty




NASA's NSSDC Master Catalog

Two Line Element Set (TLE):
1 34331U 93036PD  22141.43668483  .00010591  00000-0  24542-2 0  9992
2 34331  74.0307  36.5360 0043176 306.2187  53.4987 14.54569581697903
Source of the keplerian elements: AFSPC